Skip Page Navigation
NASA JPL Caltech
NASA Logo - Jet Propulsion Laboratory + View the NASA Portal
+ Center for Near-Earth Object Studies
JPL Home Earth Solar System Stars & Galaxies Technology
JPL Solar System Dynamics
BODIES ORBITS EPHEMERIDES TOOLS PHYSICAL DATA DISCOVERY FAQ SITE MAP
JPL Small-Body Database Browser
Search: [ help ]  
58563 (1997 NE5)
Classification: Main-belt Asteroid          SPK-ID: 2058563
Ephemeris | Orbit Diagram | Orbital Elements | Mission Design | Physical Parameters | Discovery Circumstances ]

[ show orbit diagram ]
Orbital Elements at Epoch 2459000.5 (2020-May-31.0) TDB
Reference: JPL 28 (heliocentric ecliptic J2000)
 Element Value Uncertainty (1-sigma)   Units 
e .1662026272211083 3.9808e-08  
a 2.161601087745818 8.6061e-09 au
q 1.802337307958458 8.5162e-08 au
i 3.806328122433471 5.0366e-06 deg
node 304.7948948365189 5.6264e-05 deg
peri 323.9875206355284 5.8098e-05 deg
M 100.1082715648013 1.3133e-05 deg
tp 2458677.703204654577
(2019-Jul-13.20320465)
4.2415e-05 TDB
period 1160.811634322645
3.18
6.9324e-06
1.898e-08
d
yr
n .3101278358655207 1.8521e-09 deg/d
Q 2.520864867533179 1.0036e-08 au
  Orbit Determination Parameters
   # obs. used (total)      1845  
   data-arc span      12241 days (33.51 yr)  
   first obs. used      1987-04-23  
   last obs. used      2020-10-27  
   planetary ephem.      DE431  
   SB-pert. ephem.      SB431-N16  
   condition code      0  
   norm. resid. RMS      .46853  
   source      ORB  
   producer      Otto Matic  
   solution date      2020-Nov-12 22:50:39  

Additional Information
 Earth MOID = .787921 au 
 Jupiter MOID = 2.5749 au 
 T_jup = 3.676 
[ show covariance matrix ]

Ephemeris | Orbit Diagram | Orbital Elements | Mission Design | Physical Parameters | Discovery Circumstances ]

Physical Parameter Table
Parameter Symbol Value Units Sigma Reference Notes
absolute magnitude H 15.4   n/a MPO385193  
diameter diameter 1.745 km 0.425 urn:nasa:pds:neowise_diameters_albedos::2.0[mainbelt] (http://adsabs.harvard.edu/abs/2011ApJ...741...68M)  
geometric albedo albedo 0.366   0.091 urn:nasa:pds:neowise_diameters_albedos::2.0[mainbelt] (http://adsabs.harvard.edu/abs/2011ApJ...741...68M)  

58563 (1997 NE5)          Discovered 1997-Jul-01 by BAO Schmidt CCD Asteroid Program at Xinglong
Reference: 20030614/Numbers.arcLast Updated: 2004-04-19

Alternate Designations
 1997 NE5 = 1987 HJ2 = 2001 XN97 
Ephemeris | Orbit Diagram | Orbital Elements | Mission Design | Physical Parameters | Discovery Circumstances ]
ABOUT SSD CREDITS/AWARDS PRIVACY/COPYRIGHT GLOSSARY LINKS
FirstGov 2020-Dec-03 02:48 UT
(server date/time)  
NASA Home Page
Site Manager:   Ryan S. Park
Webmaster  Alan B. Chamberlin